Tracking 29892 objects as of 21-Nov-2024
HD Live streaming from Space Station
objects crossing your sky now

FENGYUN 1C DEB

Track FENGYUN 1C DEB now!
10-day predictions


NORAD ID: 30689
Int'l Code: 1999-025AQX
Perigee: 782.1 km
Apogee: 945.8 km
Inclination: 98.7 °
Period: 102.1 minutes
Semi major axis: 7234 km
RCS: 0.025 m2 (small)
Launch date: May 10, 1999
Source: People's Republic of China (PRC)
Launch site: Taiyaun Space Center, China (TSC)

Note: This is SATELLITE DEBRIS
Your satellite tracking list
Your tracking list is empty




NASA's NSSDC Master Catalog

Two Line Element Set (TLE):
1 30689U 99025AQX 24325.64537442  .00001144  00000-0  62425-3 0  9994
2 30689  98.6797 317.9775 0113127 123.2527 302.0464 14.10759741914305
Source of the keplerian elements: AFSPC